Regional Weather Roundup
Issued by NWS

Home | Current Version | Previous Version | Graphics & Text | Print | Product List | Glossary On
Versions: 1 2 3 4 5 6 7 8 9 10 11 12 13 14 15 16 17 18 19 20 21 22 23 24 25 26 27 28 29 30 31 32 33 34 35 36 37 38 39 40 41 42 43 44 45 46 47 48 49 50
000
ASUS43 KFSD 282110
RWRSD

WEATHER ROUNDUP FOR SOUTH DAKOTA
NATIONAL WEATHER SERVICE SIOUX FALLS SD
300 PM CST WED JAN 28 2015

NOTE: "FAIR" INDICATES FEW OR NO CLOUDS BELOW 12,000 FEET WITH NO
SIGNIFICANT WEATHER AND/OR OBSTRUCTIONS TO VISIBILITY.


SDZ001>005-009-010-012>017-282200-
NORTHWEST AND NORTH CENTRAL SOUTH DAKOTA

CITY           SKY/WX    TMP DP  RH WIND       PRES   REMARKS
BUFFALO          N/A     39  32  76 NW37G46   29.91R
FAITH            N/A     49  30  48 NW30G41   29.86R
MOBRIDGE       PTSUNNY   48  35  60 NW21G29   29.78R
$$

SDZ012>016-024>037-041>051-057-063-072>074-282200-
SOUTHWEST AND SOUTH CENTRAL SOUTH DAKOTA

CITY           SKY/WX    TMP DP  RH WIND       PRES   REMARKS
RAPID CTY ARPT CLOUDY    56  25  30 NW29G38   29.92R
PIERRE         MOSUNNY   56  31  38 NW29G36   29.76R
CUSTER         CLOUDY    42  24  49 NW13G20   29.98R
ELLSWORTH AFB  CLOUDY    54  26  33 NW28G38   29.91R
PHILIP         CLOUDY    57  28  33 NW21G30   29.84R
PINE RIDGE     CLOUDY    54  28  36 NW12      29.95R
WINNER         FAIR      62  31  31 NW24G33   29.76R
$$

SDZ004>011-016>023-039-040-282200-
NORTHEAST SOUTH DAKOTA

CITY           SKY/WX    TMP DP  RH WIND       PRES   REMARKS
ABERDEEN       CLOUDY    42  34  73 CALM      29.73R
WATERTOWN      CLOUDY    36  32  85 CALM      29.69S
SISSETON         N/A     35  33  92 CALM      29.73R
$$

SDZ017-020-022-023-036>040-048>070-282200-
SOUTHEAST SOUTH DAKOTA

CITY           SKY/WX    TMP DP  RH WIND       PRES   REMARKS
SIOUX FALLS    PTSUNNY   45  35  68 CALM      29.67S
HURON          MOSUNNY   46  36  68 N12       29.70R
CHAMBERLAIN    SUNNY     55  35  47 NW21G30   29.73R
MITCHELL       SUNNY     46  37  71 NW15      29.70S
YANKTON        MOSUNNY   54  37  54 NW16      29.66S
$$

ABBREVIATIONS USED IN REMARKS
   TC - TEMPERATURE IN CELSIUS
  WCI - WIND CHILL INDEX
   HX - HEAT INDEX
  VSB - VISIBILITY



USA.gov is the U.S. government's official web portal to all federal, state and local government web resources and services.